Time,TemperatureF,DewpointF,PressureIn,WindDirection,WindDirectionDegrees,WindSpeedMPH,WindSpeedGustMPH,Humidity,HourlyPrecipIn,Conditions,Clouds,dailyrainin,SoftwareType,DateUTC
2017-06-24 00:00:00,73.8,72.0,29.85,South,180,10.0,-999.0,96,0.00,,,0.00,,2017-06-24 04:00:00,
2017-06-24 00:06:00,73.8,73.0,29.86,NW,315,5.0,-999.0,98,0.00,,,0.00,,2017-06-24 04:06:00,
2017-06-24 00:11:00,73.5,72.0,29.85,WNW,293,7.0,-999.0,98,0.00,,,0.00,,2017-06-24 04:11:00,
2017-06-24 00:17:00,73.5,72.0,29.85,South,180,3.0,-999.0,98,0.00,,,0.00,,2017-06-24 04:17:00,
2017-06-24 00:22:00,73.1,72.0,29.85,South,180,4.0,-999.0,98,0.00,,,0.00,,2017-06-24 04:22:00,
2017-06-24 00:28:00,72.8,72.0,29.85,NE,45,4.0,-999.0,98,0.00,,,0.00,,2017-06-24 04:28:00,
2017-06-24 00:33:00,72.5,72.0,29.85,East,90,1.0,-999.0,98,0.00,,,0.00,,2017-06-24 04:33:00,
2017-06-24 00:39:00,72.3,72.0,29.84,SSW,203,6.0,-999.0,98,0.00,,,0.00,,2017-06-24 04:39:00,
2017-06-24 00:45:00,72.5,72.0,29.83,NNE,23,4.0,-999.0,98,0.00,,,0.00,,2017-06-24 04:45:00,
2017-06-24 00:50:00,72.5,72.0,29.85,SSE,158,5.0,-999.0,98,0.00,,,0.00,,2017-06-24 04:50:00,
2017-06-24 00:56:00,72.3,72.0,29.84,SW,225,9.0,-999.0,98,0.00,,,0.00,,2017-06-24 04:56:00,
2017-06-24 01:01:00,71.1,70.0,29.86,NNW,338,6.0,-999.0,98,0.01,,,0.01,,2017-06-24 05:01:00,
2017-06-24 01:07:00,70.1,69.0,29.86,South,180,4.0,-999.0,98,0.09,,,0.09,,2017-06-24 05:07:00,
2017-06-24 01:12:00,69.6,69.0,29.87,NNE,23,3.0,-999.0,98,0.09,,,0.09,,2017-06-24 05:12:00,
2017-06-24 01:18:00,69.4,69.0,29.86,NNE,23,3.0,-999.0,98,0.09,,,0.09,,2017-06-24 05:18:00,
2017-06-24 01:23:00,69.4,69.0,29.87,East,90,5.0,-999.0,98,0.09,,,0.09,,2017-06-24 05:23:00,
2017-06-24 01:29:00,69.3,69.0,29.87,NNW,338,15.0,-999.0,98,0.09,,,0.09,,2017-06-24 05:29:00,
2017-06-24 01:34:00,69.3,69.0,29.85,East,90,4.0,-999.0,98,0.09,,,0.09,,2017-06-24 05:34:00,
2017-06-24 01:35:00,69.3,69.0,29.86,South,180,13.0,-999.0,98,0.09,,,0.09,,2017-06-24 05:35:00,
2017-06-24 01:41:00,69.0,68.0,29.86,ENE,68,4.0,-999.0,98,0.09,,,0.09,,2017-06-24 05:41:00,
2017-06-24 01:47:00,68.9,68.0,29.86,South,180,2.0,-999.0,98,0.09,,,0.09,,2017-06-24 05:47:00,
2017-06-24 01:52:00,68.6,68.0,29.86,ESE,113,4.0,-999.0,98,0.09,,,0.09,,2017-06-24 05:52:00,
2017-06-24 01:57:00,68.1,67.0,29.87,NE,45,2.0,-999.0,98,0.09,,,0.09,,2017-06-24 05:57:00,
2017-06-24 02:03:00,67.8,67.0,29.86,WNW,293,2.0,-999.0,98,0.00,,,0.09,,2017-06-24 06:03:00,
2017-06-24 02:08:00,67.3,67.0,29.86,East,90,1.0,-999.0,98,0.00,,,0.09,,2017-06-24 06:08:00,
2017-06-24 02:14:00,66.9,66.0,29.86,East,90,3.0,-999.0,98,0.00,,,0.09,,2017-06-24 06:14:00,
2017-06-24 02:20:00,66.5,66.0,29.87,ESE,113,3.0,-999.0,98,0.00,,,0.09,,2017-06-24 06:20:00,
2017-06-24 02:25:00,66.1,65.0,29.86,WNW,293,1.0,-999.0,98,0.00,,,0.09,,2017-06-24 06:25:00,
2017-06-24 02:31:00,65.6,65.0,29.86,WNW,293,2.0,-999.0,98,0.00,,,0.09,,2017-06-24 06:31:00,
2017-06-24 02:36:00,65.2,65.0,29.86,NW,315,3.0,-999.0,98,0.00,,,0.09,,2017-06-24 06:36:00,
2017-06-24 02:42:00,64.9,64.0,29.87,NE,45,1.0,-999.0,98,0.00,,,0.09,,2017-06-24 06:42:00,
2017-06-24 02:47:00,64.8,64.0,29.86,East,90,1.0,-999.0,98,0.00,,,0.09,,2017-06-24 06:47:00,
2017-06-24 02:53:00,64.6,64.0,29.87,SSW,203,2.0,-999.0,98,0.00,,,0.09,,2017-06-24 06:53:00,
2017-06-24 02:58:00,64.4,64.0,29.88,ESE,113,2.0,-999.0,98,0.00,,,0.09,,2017-06-24 06:58:00,
2017-06-24 03:04:00,64.1,63.0,29.88,NE,45,4.0,-999.0,98,0.00,,,0.09,,2017-06-24 07:04:00,
2017-06-24 03:09:00,63.9,63.0,29.88,SSW,203,5.0,-999.0,98,0.00,,,0.09,,2017-06-24 07:09:00,
2017-06-24 03:15:00,63.9,63.0,29.89,WNW,293,5.0,-999.0,98,0.00,,,0.09,,2017-06-24 07:15:00,
2017-06-24 03:20:00,63.6,63.0,29.88,WSW,248,5.0,-999.0,98,0.00,,,0.09,,2017-06-24 07:20:00,
2017-06-24 03:24:00,63.4,63.0,29.90,SE,135,2.0,-999.0,98,0.00,,,0.09,,2017-06-24 07:24:00,
2017-06-24 03:30:00,63.2,63.0,29.90,NE,45,5.0,-999.0,98,0.00,,,0.09,,2017-06-24 07:30:00,
2017-06-24 03:35:00,63.0,62.0,29.90,SSW,203,4.0,-999.0,98,0.00,,,0.09,,2017-06-24 07:35:00,
2017-06-24 03:41:00,63.0,62.0,29.89,WNW,293,5.0,-999.0,98,0.00,,,0.09,,2017-06-24 07:41:00,
2017-06-24 03:46:00,63.0,62.0,29.90,NE,45,2.0,-999.0,98,0.00,,,0.09,,2017-06-24 07:46:00,
2017-06-24 03:52:00,62.7,62.0,29.90,East,90,3.0,-999.0,98,0.00,,,0.09,,2017-06-24 07:52:00,
2017-06-24 03:58:00,62.5,62.0,29.90,WSW,248,5.0,-999.0,98,0.00,,,0.09,,2017-06-24 07:58:00,
2017-06-24 04:03:00,62.4,62.0,29.90,East,90,3.0,-999.0,98,0.00,,,0.09,,2017-06-24 08:03:00,
2017-06-24 04:09:00,62.4,62.0,29.90,NNE,23,2.0,-999.0,98,0.00,,,0.09,,2017-06-24 08:09:00,
2017-06-24 04:14:00,62.4,62.0,29.92,NE,45,5.0,-999.0,98,0.00,,,0.09,,2017-06-24 08:14:00,
2017-06-24 04:20:00,62.4,62.0,29.92,SSW,203,1.0,-999.0,98,0.00,,,0.09,,2017-06-24 08:20:00,
2017-06-24 04:25:00,62.4,62.0,29.92,East,90,2.0,-999.0,98,0.00,,,0.09,,2017-06-24 08:25:00,
2017-06-24 04:31:00,62.4,62.0,29.93,NE,45,2.0,-999.0,98,0.00,,,0.09,,2017-06-24 08:31:00,
2017-06-24 04:34:00,62.2,61.0,29.92,West,270,5.0,-999.0,98,0.00,,,0.09,,2017-06-24 08:34:00,
2017-06-24 04:40:00,62.2,61.0,29.93,West,270,3.0,-999.0,98,0.00,,,0.09,,2017-06-24 08:40:00,
2017-06-24 04:45:00,62.1,61.0,29.93,East,90,2.0,-999.0,98,0.00,,,0.09,,2017-06-24 08:45:00,
2017-06-24 04:51:00,62.1,61.0,29.93,SSE,158,1.0,-999.0,98,0.00,,,0.09,,2017-06-24 08:51:00,
2017-06-24 04:56:00,61.9,61.0,29.93,ESE,113,3.0,-999.0,98,0.00,,,0.09,,2017-06-24 08:56:00,
2017-06-24 05:02:00,61.7,61.0,29.94,NE,45,4.0,-999.0,98,0.00,,,0.09,,2017-06-24 09:02:00,
2017-06-24 05:07:00,61.7,61.0,29.94,South,180,2.0,-999.0,98,0.00,,,0.09,,2017-06-24 09:07:00,
2017-06-24 05:13:00,61.5,61.0,29.95,WNW,293,3.0,-999.0,98,0.00,,,0.09,,2017-06-24 09:13:00,
2017-06-24 05:18:00,61.5,61.0,29.94,SSW,203,5.0,-999.0,98,0.00,,,0.09,,2017-06-24 09:18:00,
2017-06-24 05:24:00,61.5,61.0,29.95,ENE,68,2.0,-999.0,98,0.00,,,0.09,,2017-06-24 09:24:00,
2017-06-24 05:29:00,61.3,61.0,29.95,WNW,293,4.0,-999.0,98,0.00,,,0.09,,2017-06-24 09:29:00,
2017-06-24 05:35:00,61.3,61.0,29.96,SSE,158,4.0,-999.0,98,0.00,,,0.09,,2017-06-24 09:35:00,
2017-06-24 05:41:00,61.1,60.0,29.96,NE,45,2.0,-999.0,98,0.00,,,0.09,,2017-06-24 09:41:00,
2017-06-24 05:46:00,61.0,60.0,29.96,North,0,2.0,-999.0,98,0.00,,,0.09,,2017-06-24 09:46:00,
2017-06-24 05:51:00,60.7,60.0,29.95,South,180,1.0,-999.0,98,0.00,,,0.09,,2017-06-24 09:51:00,
2017-06-24 05:57:00,60.5,60.0,29.95,ESE,113,3.0,-999.0,98,0.00,,,0.09,,2017-06-24 09:57:00,
2017-06-24 06:02:00,60.5,60.0,29.96,WSW,248,2.0,-999.0,98,0.00,,,0.09,,2017-06-24 10:02:00,
2017-06-24 06:08:00,60.3,60.0,29.96,SSE,158,1.0,-999.0,98,0.00,,,0.09,,2017-06-24 10:08:00,
2017-06-24 06:13:00,60.3,60.0,29.96,NW,315,0.0,-999.0,98,0.00,,,0.09,,2017-06-24 10:13:00,
2017-06-24 06:19:00,60.3,60.0,29.96,North,0,0.0,-999.0,98,0.00,,,0.09,,2017-06-24 10:19:00,
2017-06-24 06:24:00,60.2,60.0,29.96,NW,315,0.0,-999.0,98,0.00,,,0.09,,2017-06-24 10:24:00,
2017-06-24 06:30:00,60.2,60.0,29.96,SW,225,0.0,-999.0,98,0.00,,,0.09,,2017-06-24 10:30:00,
2017-06-24 06:35:00,60.2,60.0,29.98,SSE,158,4.0,-999.0,98,0.00,,,0.09,,2017-06-24 10:35:00,
2017-06-24 06:41:00,60.2,60.0,29.98,ESE,113,1.0,-999.0,98,0.00,,,0.09,,2017-06-24 10:41:00,
2017-06-24 06:47:00,60.3,60.0,29.98,SE,135,0.0,-999.0,98,0.00,,,0.09,,2017-06-24 10:47:00,
2017-06-24 06:52:00,60.5,60.0,29.98,East,90,0.0,-999.0,98,0.00,,,0.09,,2017-06-24 10:52:00,
2017-06-24 06:58:00,60.5,60.0,29.98,SSW,203,2.0,-999.0,98,0.00,,,0.09,,2017-06-24 10:58:00,
2017-06-24 07:03:00,60.7,60.0,29.98,WSW,248,0.0,-999.0,98,0.00,,,0.09,,2017-06-24 11:03:00,
2017-06-24 07:09:00,61.0,60.0,29.99,SW,225,0.0,-999.0,98,0.00,,,0.09,,2017-06-24 11:09:00,
2017-06-24 07:14:00,61.1,60.0,29.98,SSW,203,0.0,-999.0,98,0.00,,,0.09,,2017-06-24 11:14:00,
2017-06-24 07:20:00,61.7,61.0,29.99,South,180,0.0,-999.0,98,0.00,,,0.09,,2017-06-24 11:20:00,
2017-06-24 07:25:00,61.7,61.0,30.00,WNW,293,0.0,-999.0,98,0.00,,,0.09,,2017-06-24 11:25:00,
2017-06-24 07:31:00,61.7,61.0,30.00,NNW,338,0.0,-999.0,98,0.00,,,0.09,,2017-06-24 11:31:00,
2017-06-24 07:37:00,61.9,61.0,29.99,ESE,113,0.0,-999.0,98,0.00,,,0.09,,2017-06-24 11:37:00,
2017-06-24 07:42:00,62.2,61.0,30.01,North,0,1.0,-999.0,98,0.00,,,0.09,,2017-06-24 11:42:00,
2017-06-24 07:48:00,63.0,62.0,30.00,West,270,0.0,-999.0,98,0.00,,,0.09,,2017-06-24 11:48:00,
2017-06-24 07:53:00,63.4,63.0,30.00,NNE,23,2.0,-999.0,98,0.00,,,0.09,,2017-06-24 11:53:00,
2017-06-24 07:59:00,63.2,63.0,30.00,SW,225,0.0,-999.0,98,0.00,,,0.09,,2017-06-24 11:59:00,
2017-06-24 08:04:00,63.0,62.0,30.00,North,0,0.0,-999.0,98,0.00,,,0.09,,2017-06-24 12:04:00,
2017-06-24 08:10:00,63.0,62.0,30.00,SE,135,0.0,-999.0,98,0.00,,,0.09,,2017-06-24 12:10:00,
2017-06-24 08:15:00,63.4,63.0,30.01,SSW,203,1.0,-999.0,98,0.00,,,0.09,,2017-06-24 12:15:00,
2017-06-24 08:21:00,63.9,63.0,30.01,SSW,203,3.0,-999.0,98,0.00,,,0.09,,2017-06-24 12:21:00,
2017-06-24 08:26:00,64.1,63.0,30.01,South,180,1.0,-999.0,98,0.00,,,0.09,,2017-06-24 12:26:00,
2017-06-24 08:32:00,64.6,64.0,30.02,NW,315,1.0,-999.0,98,0.00,,,0.09,,2017-06-24 12:32:00,
2017-06-24 08:38:00,64.9,64.0,30.01,NNW,338,0.0,-999.0,98,0.00,,,0.09,,2017-06-24 12:38:00,
2017-06-24 08:43:00,65.6,65.0,30.01,SSE,158,0.0,-999.0,98,0.00,,,0.09,,2017-06-24 12:43:00,
2017-06-24 08:49:00,67.3,67.0,30.02,SW,225,0.0,-999.0,98,0.00,,,0.09,,2017-06-24 12:49:00,
2017-06-24 08:54:00,68.4,68.0,30.02,NE,45,2.0,-999.0,98,0.00,,,0.09,,2017-06-24 12:54:00,
2017-06-24 09:00:00,67.8,67.0,30.02,NNW,338,2.0,-999.0,98,0.00,,,0.09,,2017-06-24 13:00:00,
2017-06-24 09:05:00,69.0,68.0,30.02,NNE,23,4.0,-999.0,98,0.00,,,0.09,,2017-06-24 13:05:00,
2017-06-24 09:11:00,70.9,69.0,30.02,NE,45,1.0,-999.0,96,0.00,,,0.09,,2017-06-24 13:11:00,
2017-06-24 09:16:00,70.6,69.0,30.03,NE,45,1.0,-999.0,96,0.00,,,0.09,,2017-06-24 13:16:00,
2017-06-24 09:22:00,71.9,70.0,30.02,ENE,68,2.0,-999.0,95,0.00,,,0.09,,2017-06-24 13:22:00,
2017-06-24 09:28:00,71.4,70.0,30.02,SW,225,3.0,-999.0,96,0.00,,,0.09,,2017-06-24 13:28:00,
2017-06-24 09:33:00,71.0,69.0,30.03,NE,45,1.0,-999.0,96,0.00,,,0.09,,2017-06-24 13:33:00,
2017-06-24 09:39:00,71.8,69.0,30.03,WNW,293,0.0,-999.0,93,0.00,,,0.09,,2017-06-24 13:39:00,
2017-06-24 09:44:00,72.5,70.0,30.02,NW,315,0.0,-999.0,93,0.00,,,0.09,,2017-06-24 13:44:00,
2017-06-24 09:50:00,72.5,70.0,30.02,NW,315,4.0,-999.0,95,0.00,,,0.09,,2017-06-24 13:50:00,
2017-06-24 09:55:00,72.8,70.0,30.01,WNW,293,1.0,-999.0,93,0.00,,,0.09,,2017-06-24 13:55:00,
2017-06-24 10:01:00,71.0,69.0,30.02,ENE,68,0.0,-999.0,95,0.00,,,0.09,,2017-06-24 14:01:00,
2017-06-24 10:06:00,70.9,69.0,30.02,NE,45,3.0,-999.0,96,0.00,,,0.09,,2017-06-24 14:06:00,
2017-06-24 10:11:00,71.5,69.0,30.03,ESE,113,3.0,-999.0,93,0.00,,,0.09,,2017-06-24 14:11:00,
2017-06-24 10:14:00,72.1,69.0,30.03,NNE,23,1.0,-999.0,93,0.00,,,0.09,,2017-06-24 14:14:00,
2017-06-24 10:19:00,71.9,70.0,30.04,NW,315,3.0,-999.0,95,0.00,,,0.09,,2017-06-24 14:19:00,
2017-06-24 10:25:00,70.5,69.0,30.02,SSE,158,1.0,-999.0,96,0.00,,,0.09,,2017-06-24 14:25:00,
2017-06-24 10:30:00,69.6,69.0,30.04,NW,315,1.0,-999.0,98,0.00,,,0.09,,2017-06-24 14:30:00,
2017-06-24 10:36:00,69.3,69.0,30.04,North,0,0.0,-999.0,98,0.00,,,0.09,,2017-06-24 14:36:00,
2017-06-24 10:42:00,70.5,70.0,30.04,SSW,203,0.0,-999.0,98,0.00,,,0.09,,2017-06-24 14:42:00,
2017-06-24 10:47:00,69.8,69.0,30.04,SSE,158,0.0,-999.0,98,0.00,,,0.09,,2017-06-24 14:47:00,
2017-06-24 10:53:00,69.4,69.0,30.04,SSW,203,0.0,-999.0,98,0.00,,,0.09,,2017-06-24 14:53:00,
2017-06-24 10:58:00,70.0,69.0,30.05,SW,225,0.0,-999.0,98,0.00,,,0.09,,2017-06-24 14:58:00,
2017-06-24 11:04:00,69.3,69.0,30.04,WNW,293,0.0,-999.0,98,0.00,,,0.09,,2017-06-24 15:04:00,
2017-06-24 11:09:00,70.0,69.0,30.05,SW,225,1.0,-999.0,98,0.00,,,0.09,,2017-06-24 15:09:00,
2017-06-24 11:15:00,71.1,70.0,30.06,South,180,3.0,-999.0,98,0.00,,,0.09,,2017-06-24 15:15:00,